Flag for Denmark Weather past 2 weeks in Aarhus, Denmark

Now
64 °F

Partly sunny.


Feels Like: 64 °F
Forecast: 55 / 75 °F
Wind: 20 mph from West

Location: Tirstrup

Current Time: Jul 6, 2015 at 1:25:57 PM

Latest Report: Jul 6, 2015 at 12:50 PM


Visibility: N/A

Pressure: 29.95 "Hg

Humidity: 52%

Dew point: 46 °F

Location of AarhusLocation

Historic Weather in Aarhus — Graph

°F

Aarhus temperature yesterday

Maximum temperature yesterday: 86 °F (at 1:20 PM)
Minimum temperature yesterday: 61 °F (at 4:50 AM)
Average temperature yesterday: 74 °F

Past Weeks' High & Low Weather Summary

 TemperatureHumidityPressure
High86 °F (Jul 5, 1:20 PM)88% (Jun 22, 4:20 AM)30.33 "Hg (Jun 22, 4:20 AM)
Low41 °F (Jun 23, 4:50 AM)25% (Jul 1, 3:50 PM)29.62 "Hg (Jun 22, 4:50 PM)
Average62 °F65%30.04 "Hg
* Reported Jun 21 12:20 PM — Jul 6 12:20 PM, Aarhus, Weather by CustomWeather, © 2015

Note: Actual official high and low records may vary slightly from our data, if they occured in-between our weather recording intervals... More about our weather records

Advertising

Aarhus weather history for previous 24 hours

 ConditionsComfort  
Time TempWeatherWind HumidityBarometerVisibility
12:20 PM
Mon, Jul 6
63 °FPartly sunny.18 mph59%29.95 "HgN/A
11:50 AM63 °FPartly sunny.20 mph59%29.92 "HgN/A
11:20 AM63 °FPartly sunny.24 mph59%29.92 "HgN/A
10:50 AM63 °FPartly sunny.17 mph64%29.89 "HgN/A
10:20 AM63 °FPartly sunny.22 mph59%29.89 "HgN/A
9:50 AM64 °FPartly sunny.21 mph56%29.89 "HgN/A
9:20 AM64 °FScattered clouds.16 mph56%29.86 "HgN/A
8:50 AM66 °FPassing clouds.14 mph56%29.83 "HgN/A
8:20 AM64 °FScattered clouds.12 mph64%29.83 "HgN/A
7:50 AM64 °FPassing clouds.12 mph68%29.86 "HgN/A
7:20 AM63 °FPartly sunny.12 mph68%29.83 "HgN/A
6:50 AM63 °FPartly sunny.12 mph73%29.83 "HgN/A
6:20 AM63 °FPartly sunny.13 mph73%29.83 "HgN/A
5:50 AM63 °FPartly sunny.14 mph77%29.83 "HgN/A
5:20 AM63 °FPassing clouds.13 mph77%29.83 "HgN/A
4:50 AM64 °FPassing clouds.14 mph78%29.83 "HgN/A
4:20 AM64 °FPassing clouds.16 mph78%29.80 "HgN/A
3:50 AM68 °FPassing clouds.12 mph78%29.80 "HgN/A
3:20 AM68 °FPassing clouds.7 mph83%29.80 "HgN/A
2:50 AM68 °FPassing clouds.5 mph83%29.80 "HgN/A
2:20 AM68 °FPassing clouds.6 mph83%29.80 "Hg4 mi
1:50 AM68 °FPassing clouds.5 mph83%29.80 "Hg3 mi
1:20 AM68 °FRain. Passing clouds.6 mph83%29.80 "Hg4 mi
12:50 AM68 °FPassing clouds.3 mph78%29.80 "HgN/A
12:20 AM68 °FPassing clouds.3 mph78%29.80 "HgN/A
11:50 PM
Sun, Jul 5
68 °FPartly cloudy.6 mph73%29.80 "HgN/A
11:20 PM68 °FSprinkles. Passing clouds.3 mph78%29.83 "HgN/A
10:50 PM70 °FDrizzle. Partly sunny.5 mph73%29.86 "HgN/A
10:20 PM70 °FLight rain. Partly sunny.5 mph73%29.89 "HgN/A
9:50 PM72 °FLight rain. Partly sunny.3 mph65%29.89 "HgN/A
9:20 PM72 °FBroken clouds.No wind61%29.89 "HgN/A
8:50 PM72 °FPartly sunny.6 mph65%29.86 "HgN/A
8:20 PM73 °FPartly sunny.6 mph65%29.89 "HgN/A
7:50 PM75 °FPartly sunny.3 mph61%29.89 "HgN/A
7:20 PM75 °FPartly sunny.No wind61%29.92 "HgN/A
6:50 PM77 °FSprinkles. Partly sunny.2 mph57%29.92 "HgN/A
6:20 PM79 °FPassing clouds.5 mph54%29.95 "HgN/A
5:50 PM81 °FPassing clouds.5 mph45%29.98 "HgN/A
5:20 PM82 °FPleasantly warm.6 mph40%29.98 "HgN/A
4:50 PM84 °FPleasantly warm.5 mph40%29.98 "HgN/A
4:20 PM86 °FPassing clouds.6 mph35%29.98 "HgN/A
3:50 PM86 °FPleasantly warm.5 mph33%29.98 "HgN/A
3:20 PM86 °FPleasantly warm.3 mph33%30.01 "HgN/A
2:50 PM84 °FPassing clouds.2 mph33%30.01 "HgN/A
2:20 PM84 °FScattered clouds.5 mph33%30.01 "HgN/A
1:50 PM84 °FScattered clouds.5 mph35%30.01 "HgN/A
1:20 PM86 °FPleasantly warm.6 mph33%30.04 "HgN/A
Weather by CustomWeather, © 2015

See weather overviewHow to use our weather pages